Regional Weather Roundup
Issued by NWS New Orleans/Baton Rouge, LA

Home | Current Version | Previous Version | Text Only | Print | Product List | Glossary On
Versions: 1 2 3 4 5 6 7 8 9 10 11 12 13 14 15 16 17 18 19 20 21 22 23 24 25 26 27 28 29 30 31 32 33 34 35 36 37 38 39 40 41 42 43 44 45 46 47 48 49 50
248
ASUS44 KLIX 180301
RWRLIX
NEW ORLEANS REGIONAL WEATHER ROUNDUP
NATIONAL WEATHER SERVICE NEW ORLEANS LA
1000 PM CDT THU APR 17 2014

NOTE: "FAIR" INDICATES FEW OR NO CLOUDS BELOW 12,000 FEET WITH NO
      SIGNIFICANT WEATHER AND/OR OBSTRUCTIONS TO VISIBILITY.
      SKY/WX - SKY CONDITION AND SIGNIFICANT WEATHER.
      TMP - AIR TEMPERATURE.     DP    - DEWPOINT TEMPERATURE.
      RH  - RELATIVE HUMIDITY.   PRES  - PRESSURE.
      HI  - HEAT INDEX.          WCI   - WIND CHILL INDEX.

*  THESE STATIONS ARE NOT NWS OR FAA STATIONS AND ARE NOT UNDER
   NWS QUALITY CONTROL.

LAZ038-040-048-061>063-065>067-069-180400-
SOUTHEAST LOUISIANA

CITY           SKY/WX    TMP DP  RH WIND       PRES   REMARKS
N.O. AUDUBON     N/A    N/A N/A N/A MISG        N/A
N.O. INTL ARPT CLOUDY    64  58  80 E14G23    30.11F
N.O. LAKEFRONT CLOUDY    64  60  87 E15       30.13S
N.O. DOWNTOWN* CLOUDY    63  55  77 E9G16     30.12F
SLIDELL        CLOUDY    62  59  90 CALM      30.13R
BATON ROUGE    CLOUDY    63  57  81 N3        30.13S
BOOTHVILLE     LGT RAIN  63  62  97 E24G32    30.06F FOG
BELLE CHASSE   CLOUDY    63  59  87 E12       30.12S
BOGALUSA*        N/A     63  56  79 CALM      30.17R
GALLIANO*      NOT AVBL
NEW ROADS*     NOT AVBL
GONZALES*      CLOUDY    64  59  85 NE6       30.12R
HAMMOND*       NOT AVBL
HOUMA*           N/A     63  59  87 NE13      30.10R
PORT FOURCHON* CLOUDY    64  63  94 E14G22    30.10R

$$

MSZ070-080>082-180400-
SOUTHERN MISSISSIPPI

CITY           SKY/WX    TMP DP  RH WIND       PRES   REMARKS
MCCOMB         CLOUDY    60  54  80 NE5       30.16R
GULFPORT       LGT RAIN  65  60  84 E3        30.14S
BILOXI         NOT AVBL
PASCAGOULA     RAIN      61  60  97 E6        30.17R FOG

$$

COASTAL OBSERVATIONS
LAKE AND NEARSHORE STATIONS

STATION/POSITION TIME  TEMP    WIND        PRES    WAVE
                       AIR SEA DIR/SP/G            HT/PER
                 (UTC) (F)     (DEG/KT/KT) (MB)    (FT/S)
PASCAGOULA       0200   63      50/  9/ 11 1020.9
WAVELAND YACHT   0200   63 66   10/  6/  8 1019.7
GRAND ISLE       0200   64 67   80/ 12/ 16 1019.3
SOUTHWEST PASS   0200   64 58   80/ 22/ 24 1019.2
NEW CANAL        0200   63 63   80/  8/ 15 1020.3
SHELL BEACH      0200   63 61   70/ 15/ 16 1020.2

OFFSHORE STATIONS

STATION/POSITION TIME  TEMP    WIND        PRES    WAVE
                       AIR SEA DIR/SP/G            HT/PER
                 (UTC) (F)     (DEG/KT/KT) (MB)    (FT/S)
64 S DAUPHIN ISL 0151   65 71   30/ 19/ 23 1020.8

$$




USA.gov is the U.S. government's official web portal to all federal, state and local government web resources and services.